Wind_Speed
16 16 15 15 14 13 12 10 9 9 8 8 8 8 7 6 6 6 6 6 6 6 6 6 6 7 7 8 8 8 8 8 8 9 9 10 10 10 10 10 10 11 11
17 17 17 16 16 15 14 12 12 11 10 10 9 9 9 8 8 8 7 7 7 7 7 7 8 8 9 9 9 9 10 10 10 10 10 11 11 11 11 12 12 12 13
18 18 18 17 17 16 16 15 14 13 12 12 11 10 10 10 9 9 9 9 9 9 9 9 10 10 10 10 10 11 11 11 11 11 12 12 12 12 13 13 13 14 14
19 19 19 19 18 18 17 16 15 15 14 14 13 13 12 12 11 11 10 10 10 10 11 11 11 12 12 12 12 12 12 12 12 12 13 13 13 14 14 14 14 15 15
20 20 20 20 19 19 18 17 17 16 16 16 15 15 14 14 13 13 12 12 12 12 12 13 13 13 13 13 13 13 13 13 14 14 14 14 14 15 15 15 15 16 16
22 21 21 21 20 20 19 19 19 18 18 17 17 16 16 16 15 15 14 14 14 14 14 14 15 15 15 15 14 14 14 14 15 15 15 16 16 16 16 16 16 16 17
24 22 22 22 22 22 21 21 20 20 20 19 18 18 18 18 17 17 16 16 16 16 16 16 16 17 17 16 16 16 16 16 16 16 17 17 17 17 16 17 17 17 17
26 25 24 24 24 23 23 23 22 22 21 21 20 20 20 20 19 19 19 18 18 18 18 18 18 18 18 18 18 17 17 17 18 18 18 18 18 18 18 18 18 18 18
27 26 25 26 26 25 25 25 24 24 24 23 23 22 22 22 22 21 21 21 21 21 21 20 20 20 20 20 20 20 19 20 20 20 20 20 20 20 20 20 20 20 20
29 28 27 27 27 27 27 27 26 26 26 26 26 25 25 24 24 24 24 24 24 23 23 23 23 23 23 23 22 22 21 21 21 21 21 21 21 21 21 21 21 21 21
31 31 30 29 29 29 29 29 28 28 28 28 28 28 27 27 26 26 26 26 26 26 25 25 25 25 25 25 25 24 23 23 23 23 23 23 23 23 23 23 23 23 23
33 32 32 31 31 31 31 31 30 30 30 30 29 30 29 29 29 28 28 28 28 28 28 27 27 27 27 27 27 26 26 25 25 25 25 25 25 25 25 25 25 24 24
34 34 33 33 32 33 33 33 32 32 32 32 32 32 32 31 31 31 31 30 30 30 30 30 30 29 29 29 29 29 29 28 28 28 27 27 27 27 27 27 27 26 26
34 35 34 34 34 33 34 35 34 34 34 34 34 34 34 34 34 33 33 33 32 32 32 32 32 32 31 31 31 31 30 30 30 30 29 29 29 29 29 29 29 28 28
35 35 35 35 35 35 35 36 36 36 36 37 37 37 36 36 35 35 35 35 35 35 34 34 34 33 33 33 33 33 32 32 32 32 32 31 31 31 31 31 30 30 30
35 36 36 36 36 36 37 38 39 39 38 38 39 39 39 38 38 38 38 38 37 37 37 37 36 36 35 35 35 35 34 34 34 35 34 33 33 33 33 33 32 32 32
36 37 37 37 38 38 39 39 40 40 40 40 40 41 41 41 41 40 40 40 40 40 40 39 39 39 38 37 37 37 36 36 36 36 36 35 35 34 34 35 34 34 34
38 38 38 39 40 40 40 41 41 41 42 42 43 43 43 43 43 43 42 42 42 42 42 42 41 40 40 39 39 39 38 38 38 37 37 37 37 36 36 36 36 36 36
39 39 39 40 41 41 42 43 43 43 44 44 44 44 45 45 45 44 44 44 44 44 44 44 43 42 42 41 41 41 40 40 39 39 38 39 38 38 38 38 38 38 37
40 40 40 40 41 43 43 44 44 45 45 45 46 46 46 46 46 45 45 45 45 46 46 45 45 44 44 43 43 42 42 41 41 41 40 40 40 40 40 40 40 40 40
40 40 40 40 42 43 44 44 45 45 46 47 47 47 47 47 47 47 46 46 46 47 47 47 46 46 45 45 45 45 44 43 43 43 43 42 41 42 42 42 42 42 42
41 42 42 42 42 43 44 45 46 47 47 48 48 48 48 48 48 47 48 47 47 47 48 48 48 47 47 47 47 47 47 45 44 45 44 43 43 43 43 43 44 44 44
41 42 42 42 43 43 44 45 46 47 48 48 48 49 49 49 49 49 49 49 49 49 49 49 49 49 49 49 49 49 48 47 47 46 46 46 45 45 45 45 45 45 45
41 43 43 43 43 44 45 45 45 47 47 48 49 50 50 51 51 50 50 50 51 51 51 50 50 51 52 51 51 52 51 50 50 49 48 47 47 47 48 47 47 47 47
41 42 42 42 42 43 44 45 45 45 47 47 48 49 50 51 52 52 52 52 53 53 52 52 53 53 54 53 53 53 53 53 52 52 51 49 49 49 49 49 49 48 48
41 41 42 42 42 43 44 45 45 45 47 47 47 48 48 49 51 52 52 52 53 53 53 54 54 54 55 55 54 54 55 54 54 54 53 52 52 52 52 51 50 49 49
Wind_Direction
253 252 252 254 255 257 258 259 263 266 265 267 267 268 269 272 275 280 283 287 289 288 285 287 288 290 294 294 296 300 303 303 304 305 307 310 313 315 314 316 317 318 318
254 252 251 252 253 254 255 257 259 262 263 264 263 265 268 271 274 275 278 281 284 285 284 284 285 288 291 293 293 294 297 297 298 300 303 307 309 310 310 310 312 314 315
255 253 251 251 252 253 254 256 257 259 262 262 261 263 267 269 270 271 273 276 278 281 281 280 282 285 288 289 290 290 292 292 293 298 301 304 306 307 308 307 308 311 312
255 253 252 251 252 253 254 255 257 258 260 261 262 263 266 267 268 269 271 273 275 277 278 279 280 282 284 285 286 288 289 290 292 296 299 301 303 304 304 305 306 308 309
255 253 252 251 252 253 253 254 256 258 259 260 261 263 265 265 266 267 268 269 271 273 276 278 278 280 281 282 283 285 286 289 291 294 297 297 298 300 301 302 303 305 307
254 253 252 251 251 252 254 256 256 258 258 259 261 264 265 265 264 265 266 267 268 270 273 276 277 277 278 279 279 281 283 285 288 291 294 294 295 296 298 300 303 303 305
253 253 251 251 251 252 253 255 257 258 258 258 260 263 264 266 266 266 266 266 267 268 269 272 273 274 275 276 278 280 281 282 284 287 290 292 293 293 296 298 300 302 303
252 252 251 250 250 250 252 254 256 257 257 258 259 261 263 265 266 266 265 266 267 267 268 270 270 272 273 274 275 277 279 280 282 283 286 288 289 290 292 294 296 299 300
251 251 252 252 251 251 252 253 254 255 255 257 258 260 262 263 264 265 265 266 267 268 268 269 269 269 271 273 274 275 277 278 280 281 283 285 287 289 290 292 294 296 298
251 252 252 251 251 252 253 254 254 254 254 256 257 259 260 262 263 263 264 265 266 267 268 268 269 269 269 270 272 273 275 276 278 279 281 284 286 287 288 290 291 294 295
252 253 253 253 252 252 253 254 255 255 255 255 257 259 260 261 262 263 263 265 266 267 268 268 269 270 270 270 271 272 273 274 276 278 280 282 284 285 286 287 289 291 293
253 254 254 255 254 254 254 255 256 256 256 255 257 258 260 261 261 262 263 264 265 266 267 268 269 270 271 271 272 272 273 274 275 277 279 281 282 283 284 286 287 289 291
253 254 255 256 255 255 256 256 257 257 257 256 257 258 259 260 261 262 263 263 264 265 266 268 269 270 270 271 271 272 273 273 274 275 277 279 281 282 282 284 285 288 290
252 254 255 256 256 256 256 257 257 257 258 258 258 258 259 259 260 261 262 263 263 264 265 267 268 269 270 271 271 271 272 273 273 274 276 278 280 281 282 283 284 286 288
252 253 255 255 256 255 256 257 258 258 258 258 258 259 259 259 260 261 262 263 263 264 265 266 267 268 269 270 270 271 271 272 273 274 275 277 278 280 281 282 283 284 286
253 254 255 255 256 256 257 257 258 258 258 258 259 260 260 260 261 262 262 263 263 263 264 265 265 266 268 269 270 271 270 271 272 273 274 276 277 278 279 280 281 283 284
254 256 257 257 257 258 258 259 259 259 259 259 260 261 261 261 262 262 262 263 263 263 263 264 264 264 266 267 269 270 270 270 271 272 273 274 275 277 278 278 280 282 283
255 257 259 259 259 259 259 260 260 260 260 260 260 261 262 262 263 263 263 263 263 262 262 262 262 263 264 266 267 269 269 270 270 271 273 274 275 276 277 278 279 280 282
257 258 260 260 259 259 259 260 260 260 260 260 260 261 262 262 262 263 263 263 262 262 262 262 262 262 263 264 266 267 267 268 270 271 272 273 275 276 277 277 278 279 281
258 259 260 261 261 261 260 260 261 261 261 261 261 262 262 262 262 262 262 262 262 261 261 261 261 261 262 263 264 265 266 268 270 271 272 272 274 275 276 276 277 278 279
259 260 261 261 262 262 262 261 262 262 262 262 262 262 262 262 262 262 262 262 261 261 260 260 260 260 261 262 263 264 265 267 268 269 270 270 272 273 274 275 277 278 278
261 262 262 263 263 264 263 263 262 262 262 262 262 262 262 260 261 262 262 261 261 260 260 259 259 260 261 262 263 265 265 266 267 269 269 269 270 271 273 275 275 276 278
263 263 264 265 265 265 265 264 263 262 263 262 262 262 261 260 260 261 261 261 261 260 260 260 260 260 261 262 264 265 265 266 266 267 268 269 269 271 272 273 275 275 276
264 265 265 266 266 267 267 266 265 264 265 264 263 262 261 260 260 260 261 261 261 261 260 259 260 262 262 262 263 264 265 266 267 268 267 268 269 270 272 273 274 275 276
265 265 266 267 267 267 268 268 267 266 266 265 264 263 262 261 260 260 260 261 261 261 260 259 262 263 263 263 264 264 265 266 266 267 268 268 269 269 271 272 273 274 276
266 267 267 268 268 268 269 269 269 268 268 267 266 265 263 262 261 260 259 260 260 260 260 262 263 264 264 264 264 265 265 266 266 267 268 268 269 270 270 271 272 273 275
Height
5849 5849 5850 5850 5851 5852 5852 5853 5853 5854 5854 5855 5855 5855 5855 5855 5855 5855 5856 5856 5856 5856 5857 5857 5857 5857 5857 5857 5857 5857 5857 5857 5857 5856 5856 5855 5855 5854 5853 5853 5852 5851 5850
5846 5846 5847 5848 5849 5849 5850 5850 5851 5852 5852 5852 5853 5853 5853 5853 5854 5854 5854 5854 5855 5855 5855 5855 5856 5856 5856 5856 5855 5855 5855 5855 5855 5854 5854 5853 5853 5852 5851 5851 5850 5849 5848
5842 5843 5844 5845 5846 5846 5847 5848 5848 5849 5850 5850 5850 5851 5851 5851 5852 5852 5852 5853 5853 5853 5853 5854 5854 5854 5854 5854 5854 5853 5853 5853 5853 5852 5852 5851 5851 5850 5849 5848 5847 5847 5846
5839 5840 5841 5841 5842 5843 5844 5845 5846 5846 5847 5847 5848 5848 5849 5849 5849 5850 5850 5850 5851 5851 5851 5851 5851 5851 5852 5851 5851 5851 5851 5851 5850 5850 5849 5849 5848 5847 5847 5846 5845 5844 5843
5835 5836 5837 5838 5839 5840 5840 5841 5842 5843 5844 5844 5845 5845 5846 5846 5847 5847 5847 5848 5848 5848 5849 5849 5849 5849 5849 5849 5849 5849 5848 5848 5848 5847 5847 5846 5845 5845 5844 5843 5842 5841 5840
5830 5832 5833 5834 5835 5836 5837 5838 5839 5840 5840 5841 5842 5842 5843 5843 5844 5844 5844 5845 5845 5845 5846 5846 5846 5846 5846 5846 5846 5846 5845 5845 5845 5844 5844 5843 5842 5842 5841 5840 5839 5838 5837
5826 5827 5828 5830 5831 5832 5833 5834 5835 5836 5836 5837 5838 5839 5839 5840 5840 5841 5841 5841 5842 5842 5842 5842 5842 5842 5842 5842 5842 5842 5842 5842 5841 5841 5841 5840 5839 5839 5838 5837 5836 5835 5834
5821 5822 5823 5825 5826 5827 5828 5829 5830 5831 5832 5833 5834 5835 5835 5836 5836 5837 5837 5837 5838 5838 5838 5838 5838 5838 5838 5838 5838 5838 5838 5838 5838 5837 5837 5836 5836 5835 5834 5833 5833 5831 5830
5815 5816 5818 5819 5820 5822 5823 5824 5825 5826 5827 5828 5829 5830 5831 5832 5832 5832 5833 5833 5833 5834 5834 5834 5834 5834 5834 5834 5834 5834 5834 5834 5833 5833 5833 5832 5832 5831 5830 5830 5829 5828 5827
5809 5810 5812 5813 5815 5816 5817 5819 5820 5821 5822 5823 5824 5825 5826 5826 5827 5827 5828 5828 5828 5829 5829 5829 5829 5829 5829 5829 5829 5830 5830 5829 5829 5829 5828 5828 5827 5827 5826 5825 5824 5823 5822
5802 5804 5806 5807 5808 5810 5811 5812 5814 5815 5816 5817 5818 5819 5820 5821 5821 5822 5822 5823 5823 5823 5824 5824 5824 5824 5824 5824 5824 5824 5825 5824 5824 5824 5824 5823 5823 5822 5821 5821 5820 5819 5818
5795 5797 5799 5800 5802 5803 5805 5806 5807 5808 5809 5811 5812 5813 5814 5814 5815 5816 5816 5817 5817 5818 5818 5818 5818 5818 5818 5818 5818 5819 5819 5819 5819 5818 5818 5818 5818 5817 5816 5815 5815 5814 5813
5788 5790 5791 5793 5795 5796 5798 5799 5800 5801 5803 5804 5805 5806 5807 5808 5808 5809 5810 5810 5811 5811 5811 5812 5812 5812 5812 5812 5812 5812 5813 5813 5813 5813 5812 5812 5812 5811 5811 5810 5809 5808 5807
5780 5782 5783 5785 5787 5789 5790 5791 5793 5794 5795 5797 5798 5799 5800 5800 5801 5802 5802 5803 5803 5804 5804 5805 5805 5805 5805 5805 5806 5806 5806 5807 5806 5806 5806 5806 5805 5805 5804 5804 5803 5802 5801
5772 5774 5776 5777 5779 5781 5782 5784 5785 5786 5788 5789 5790 5791 5792 5792 5793 5794 5795 5795 5796 5796 5796 5797 5797 5798 5798 5798 5798 5799 5799 5799 5799 5799 5799 5799 5798 5798 5797 5797 5796 5795 5794
5764 5766 5767 5769 5771 5772 5774 5775 5777 5778 5779 5780 5781 5782 5783 5784 5785 5785 5786 5786 5787 5788 5788 5788 5789 5789 5790 5790 5791 5791 5791 5792 5792 5791 5791 5791 5791 5790 5790 5789 5789 5788 5787
5755 5757 5759 5760 5762 5763 5765 5766 5767 5769 5770 5771 5772 5773 5774 5775 5775 5776 5776 5777 5777 5778 5778 5779 5780 5780 5781 5782 5782 5782 5783 5783 5784 5783 5783 5783 5783 5783 5782 5782 5781 5780 5780
5746 5747 5749 5750 5752 5753 5755 5756 5757 5759 5760 5761 5762 5763 5764 5765 5765 5765 5766 5766 5766 5767 5768 5769 5770 5771 5772 5772 5773 5773 5774 5775 5775 5775 5775 5775 5775 5775 5774 5774 5773 5772 5772
5736 5737 5739 5740 5741 5743 5744 5745 5747 5748 5750 5751 5752 5752 5753 5753 5754 5754 5755 5755 5755 5756 5757 5758 5759 5760 5762 5763 5763 5764 5765 5765 5766 5766 5766 5766 5766 5766 5765 5765 5764 5764 5763
5726 5727 5728 5730 5731 5732 5733 5734 5735 5737 5738 5739 5741 5741 5742 5742 5743 5743 5743 5743 5743 5744 5745 5747 5748 5750 5751 5752 5753 5754 5755 5756 5756 5756 5757 5757 5757 5757 5756 5755 5755 5754 5753
5715 5717 5718 5719 5719 5720 5722 5723 5724 5725 5727 5728 5729 5730 5730 5731 5731 5732 5732 5732 5732 5733 5734 5735 5737 5739 5740 5741 5742 5744 5745 5746 5746 5746 5746 5746 5747 5746 5746 5746 5745 5744 5744
5705 5706 5707 5708 5709 5709 5710 5711 5712 5713 5714 5715 5716 5717 5718 5718 5719 5720 5720 5720 5721 5721 5722 5724 5725 5727 5729 5730 5731 5732 5734 5736 5736 5736 5736 5736 5736 5736 5736 5735 5734 5734 5733
5696 5696 5697 5698 5698 5698 5699 5699 5700 5700 5701 5702 5704 5705 5705 5706 5707 5708 5708 5709 5710 5710 5711 5713 5714 5715 5717 5718 5719 5720 5722 5724 5725 5726 5725 5725 5725 5724 5724 5724 5723 5722 5722
5686 5686 5686 5687 5687 5687 5687 5687 5688 5688 5689 5690 5691 5691 5692 5693 5694 5695 5696 5697 5697 5698 5700 5701 5702 5703 5705 5706 5707 5708 5709 5710 5711 5713 5714 5714 5713 5713 5713 5712 5712 5711 5710
5675 5676 5676 5676 5676 5676 5676 5676 5676 5676 5676 5677 5677 5678 5679 5679 5681 5682 5683 5684 5685 5686 5687 5689 5690 5691 5692 5693 5695 5695 5696 5697 5697 5698 5700 5701 5701 5701 5700 5700 5699 5699 5698
5665 5665 5665 5665 5666 5665 5665 5664 5664 5664 5664 5664 5665 5665 5666 5666 5668 5669 5670 5671 5672 5673 5675 5676 5677 5678 5679 5680 5681 5682 5683 5684 5685 5684 5685 5687 5687 5688 5687 5687 5686 5686 5686